Year,Month,Day,Hour,Minute,Value (Times are PST for windgust in km/hr)
2013,02,22,00,00,3.20
2013,02,22,00,01,3.20
2013,02,22,00,03,1.60
2013,02,22,00,05,1.60
2013,02,22,00,06,4.80
2013,02,22,00,07,4.80
2013,02,22,00,08,4.80
2013,02,22,00,09,6.40
2013,02,22,00,10,6.40
2013,02,22,00,11,6.40
2013,02,22,00,12,4.80
2013,02,22,00,13,4.80
2013,02,22,00,14,3.20
2013,02,22,00,26,1.60
2013,02,22,00,27,1.60
2013,02,22,00,28,1.60
2013,02,22,00,29,1.60
2013,02,22,00,40,1.60
2013,02,22,00,41,3.20
2013,02,22,00,42,3.20
2013,02,22,00,45,1.60
2013,02,22,00,46,3.20
2013,02,22,00,47,3.20
2013,02,22,00,48,4.80
2013,02,22,00,49,1.60
2013,02,22,00,52,4.80
2013,02,22,00,53,6.40
2013,02,22,00,54,3.20
2013,02,22,00,55,4.80
2013,02,22,00,56,3.20
2013,02,22,00,57,4.80
2013,02,22,00,58,1.60
2013,02,22,01,00,4.80
2013,02,22,01,01,9.60
2013,02,22,01,02,4.80
2013,02,22,01,03,3.20
2013,02,22,01,04,4.80
2013,02,22,01,05,16.10
2013,02,22,01,06,6.40
2013,02,22,01,07,9.60
2013,02,22,01,08,4.80
2013,02,22,01,09,11.30
2013,02,22,01,10,4.80
2013,02,22,01,11,6.40
2013,02,22,01,12,6.40
2013,02,22,01,13,6.40
2013,02,22,01,14,3.20
2013,02,22,01,15,9.60
2013,02,22,01,16,8.10
2013,02,22,01,17,8.10
2013,02,22,01,18,8.10
2013,02,22,01,19,6.40
2013,02,22,01,20,6.40
2013,02,22,01,21,3.20
2013,02,22,01,22,4.80
2013,02,22,01,23,1.60
2013,02,22,01,24,6.40
2013,02,22,01,25,3.20
2013,02,22,01,26,3.20
2013,02,22,01,27,11.30
2013,02,22,01,28,14.50
2013,02,22,01,29,8.10
2013,02,22,01,30,6.40
2013,02,22,01,31,8.10
2013,02,22,01,32,3.20
2013,02,22,01,33,8.10
2013,02,22,01,34,6.40
2013,02,22,01,35,4.80
2013,02,22,01,36,6.40
2013,02,22,01,37,8.10
2013,02,22,01,38,1.60
2013,02,22,01,40,1.60
2013,02,22,01,43,4.80
2013,02,22,01,44,6.40
2013,02,22,01,45,1.60
2013,02,22,01,46,1.60
2013,02,22,01,47,1.60
2013,02,22,01,50,1.60
2013,02,22,01,51,4.80
2013,02,22,01,52,3.20
2013,02,22,01,53,1.60
2013,02,22,01,54,6.40
2013,02,22,01,55,3.20
2013,02,22,01,56,6.40
2013,02,22,01,57,3.20
2013,02,22,01,58,4.80
2013,02,22,01,59,8.10
2013,02,22,02,00,1.60
2013,02,22,02,01,3.20
2013,02,22,02,02,8.10
2013,02,22,02,03,8.10
2013,02,22,02,04,1.60
2013,02,22,02,05,6.40
2013,02,22,02,06,8.10
2013,02,22,02,07,6.40
2013,02,22,02,08,3.20
2013,02,22,02,09,3.20
2013,02,22,02,10,4.80
2013,02,22,02,11,9.60
2013,02,22,02,12,16.10
2013,02,22,02,13,8.10
2013,02,22,02,14,3.20
2013,02,22,02,15,4.80
2013,02,22,02,16,4.80
2013,02,22,02,17,4.80
2013,02,22,02,18,9.60
2013,02,22,02,19,6.40
2013,02,22,02,21,3.20
2013,02,22,02,22,1.60
2013,02,22,02,23,8.10
2013,02,22,02,24,4.80
2013,02,22,02,25,4.80
2013,02,22,02,26,4.80
2013,02,22,02,27,4.80
2013,02,22,02,28,3.20
2013,02,22,02,29,3.20
2013,02,22,02,30,4.80
2013,02,22,02,31,1.60
2013,02,22,02,32,1.60
2013,02,22,02,33,4.80
2013,02,22,02,34,3.20
2013,02,22,02,37,6.40
2013,02,22,02,38,11.30
2013,02,22,02,39,9.60
2013,02,22,02,40,4.80
2013,02,22,02,41,3.20
2013,02,22,02,42,1.60
2013,02,22,02,43,9.60
2013,02,22,02,44,14.50
2013,02,22,02,45,8.10
2013,02,22,02,46,8.10
2013,02,22,02,47,9.60
2013,02,22,02,48,9.60
2013,02,22,02,49,8.10
2013,02,22,02,50,8.10
2013,02,22,02,51,9.60
2013,02,22,02,52,8.10
2013,02,22,02,53,11.30
2013,02,22,02,54,9.60
2013,02,22,02,55,8.10
2013,02,22,02,56,6.40
2013,02,22,02,57,6.40
2013,02,22,02,58,8.10
2013,02,22,02,59,1.60
2013,02,22,03,00,6.40
2013,02,22,03,01,6.40
2013,02,22,03,02,9.60
2013,02,22,03,03,6.40
2013,02,22,03,04,8.10
2013,02,22,03,05,12.90
2013,02,22,03,06,9.60
2013,02,22,03,07,8.10
2013,02,22,03,08,3.20
2013,02,22,03,09,6.40
2013,02,22,03,10,11.30
2013,02,22,03,11,11.30
2013,02,22,03,12,8.10
2013,02,22,03,13,14.50
2013,02,22,03,14,9.60
2013,02,22,03,15,4.80
2013,02,22,03,16,4.80
2013,02,22,03,17,6.40
2013,02,22,03,18,11.30
2013,02,22,03,19,12.90
2013,02,22,03,20,4.80
2013,02,22,03,21,6.40
2013,02,22,03,22,8.10
2013,02,22,03,23,1.60
2013,02,22,03,24,1.60
2013,02,22,03,25,14.50
2013,02,22,03,26,8.10
2013,02,22,03,27,8.10
2013,02,22,03,28,6.40
2013,02,22,03,29,11.30
2013,02,22,03,30,3.20
2013,02,22,03,31,3.20
2013,02,22,03,32,1.60
2013,02,22,03,33,14.50
2013,02,22,03,34,16.10
2013,02,22,03,35,6.40
2013,02,22,03,36,1.60
2013,02,22,03,37,1.60
2013,02,22,03,38,14.50
2013,02,22,03,39,12.90
2013,02,22,03,40,8.10
2013,02,22,03,41,22.50
2013,02,22,03,42,22.50
2013,02,22,03,43,14.50
2013,02,22,03,44,14.50
2013,02,22,03,45,9.60
2013,02,22,03,46,6.40
2013,02,22,03,47,9.60
2013,02,22,03,48,1.60
2013,02,22,03,49,1.60
2013,02,22,03,50,1.60
2013,02,22,03,51,9.60
2013,02,22,03,52,12.90
2013,02,22,03,53,14.50
2013,02,22,03,54,9.60
2013,02,22,03,55,6.40
2013,02,22,03,56,6.40
2013,02,22,03,57,20.90
2013,02,22,03,58,8.10
2013,02,22,03,59,9.60
2013,02,22,04,00,6.40
2013,02,22,04,01,12.90
2013,02,22,04,02,9.60
2013,02,22,04,03,8.10
2013,02,22,04,04,16.10
2013,02,22,04,05,17.70
2013,02,22,04,06,14.50
2013,02,22,04,07,14.50
2013,02,22,04,08,9.60
2013,02,22,04,09,4.80
2013,02,22,04,10,4.80
2013,02,22,04,11,9.60
2013,02,22,04,12,16.10
2013,02,22,04,13,11.30
2013,02,22,04,14,16.10
2013,02,22,04,15,16.10
2013,02,22,04,16,3.20
2013,02,22,04,17,8.10
2013,02,22,04,18,12.90
2013,02,22,04,19,8.10
2013,02,22,04,20,6.40
2013,02,22,04,21,9.60
2013,02,22,04,22,9.60
2013,02,22,04,23,11.30
2013,02,22,04,24,9.60
2013,02,22,04,25,6.40
2013,02,22,04,26,9.60
2013,02,22,04,27,12.90
2013,02,22,04,28,9.60
2013,02,22,04,29,12.90
2013,02,22,04,30,9.60
2013,02,22,04,31,8.10
2013,02,22,04,32,11.30
2013,02,22,04,33,17.70
2013,02,22,04,34,11.30
2013,02,22,04,35,6.40
2013,02,22,04,36,3.20
2013,02,22,04,37,16.10
2013,02,22,04,38,14.50
2013,02,22,04,39,14.50
2013,02,22,04,40,19.30
2013,02,22,04,41,11.30
2013,02,22,04,42,8.10
2013,02,22,04,43,9.60
2013,02,22,04,44,14.50
2013,02,22,04,45,14.50
2013,02,22,04,46,14.50
2013,02,22,04,47,16.10
2013,02,22,04,48,17.70
2013,02,22,04,49,11.30
2013,02,22,04,50,16.10
2013,02,22,04,51,14.50
2013,02,22,04,52,22.50
2013,02,22,04,53,6.40
2013,02,22,04,54,9.60
2013,02,22,04,55,11.30
2013,02,22,04,56,27.40
2013,02,22,04,57,9.60
2013,02,22,04,58,11.30
2013,02,22,04,59,20.90
2013,02,22,05,00,17.70
2013,02,22,05,01,9.60
2013,02,22,05,02,19.30
2013,02,22,05,03,14.50
2013,02,22,05,04,20.90
2013,02,22,05,05,20.90
2013,02,22,05,06,16.10
2013,02,22,05,07,9.60
2013,02,22,05,08,11.30
2013,02,22,05,09,22.50
2013,02,22,05,10,16.10
2013,02,22,05,11,19.30
2013,02,22,05,12,16.10
2013,02,22,05,13,17.70
2013,02,22,05,14,14.50
2013,02,22,05,15,9.60
2013,02,22,05,16,19.30
2013,02,22,05,17,9.60
2013,02,22,05,18,11.30
2013,02,22,05,19,19.30
2013,02,22,05,20,16.10
2013,02,22,05,21,9.60
2013,02,22,05,22,17.70
2013,02,22,05,23,19.30
2013,02,22,05,24,14.50
2013,02,22,05,25,11.30
2013,02,22,05,26,3.20
2013,02,22,05,27,3.20
2013,02,22,05,28,9.60
2013,02,22,05,29,11.30
2013,02,22,05,30,6.40
2013,02,22,05,31,12.90
2013,02,22,05,32,8.10
2013,02,22,05,33,3.20
2013,02,22,05,34,9.60
2013,02,22,05,35,6.40
2013,02,22,05,36,6.40
2013,02,22,05,37,8.10
2013,02,22,05,38,4.80
2013,02,22,05,39,11.30
2013,02,22,05,40,3.20
2013,02,22,05,41,6.40
2013,02,22,05,42,1.60
2013,02,22,05,43,3.20
2013,02,22,05,44,6.40
2013,02,22,05,45,11.30
2013,02,22,05,46,9.60
2013,02,22,05,47,22.50
2013,02,22,05,48,24.20
2013,02,22,05,49,6.40
2013,02,22,05,50,12.90
2013,02,22,05,51,19.30
2013,02,22,05,52,4.80
2013,02,22,05,53,8.10
2013,02,22,05,54,11.30
2013,02,22,05,55,9.60
2013,02,22,05,56,8.10
2013,02,22,05,57,8.10
2013,02,22,05,58,3.20
2013,02,22,05,59,6.40
2013,02,22,06,00,6.40
2013,02,22,06,01,29.00
2013,02,22,06,02,9.60
2013,02,22,06,03,17.70
2013,02,22,06,04,14.50
2013,02,22,06,05,17.70
2013,02,22,06,06,11.30
2013,02,22,06,07,11.30
2013,02,22,06,08,11.30
2013,02,22,06,09,12.90
2013,02,22,06,10,14.50
2013,02,22,06,11,25.70
2013,02,22,06,12,14.50
2013,02,22,06,13,19.30
2013,02,22,06,14,17.70
2013,02,22,06,15,30.60
2013,02,22,06,16,22.50
2013,02,22,06,17,16.10
2013,02,22,06,18,9.60
2013,02,22,06,19,19.30
2013,02,22,06,20,11.30
2013,02,22,06,21,17.70
2013,02,22,06,22,11.30
2013,02,22,06,23,22.50
2013,02,22,06,24,22.50
2013,02,22,06,25,25.70
2013,02,22,06,26,24.20
2013,02,22,06,27,22.50
2013,02,22,06,28,11.30
2013,02,22,06,29,24.20
2013,02,22,06,30,6.40
2013,02,22,06,31,6.40
2013,02,22,06,32,17.70
2013,02,22,06,33,19.30
2013,02,22,06,34,27.40
2013,02,22,06,35,16.10
2013,02,22,06,36,19.30
2013,02,22,06,37,17.70
2013,02,22,06,38,19.30
2013,02,22,06,39,22.50
2013,02,22,06,40,27.40
2013,02,22,06,41,17.70
2013,02,22,06,42,22.50
2013,02,22,06,43,17.70
2013,02,22,06,44,27.40
2013,02,22,06,45,19.30
2013,02,22,06,46,17.70
2013,02,22,06,47,24.20
2013,02,22,06,48,16.10
2013,02,22,06,49,24.20
2013,02,22,06,50,16.10
2013,02,22,06,51,16.10
2013,02,22,06,52,4.80
2013,02,22,06,53,17.70
2013,02,22,06,54,16.10
2013,02,22,06,55,22.50
2013,02,22,06,56,11.30
2013,02,22,06,57,20.90
2013,02,22,06,58,19.30
2013,02,22,06,59,11.30
2013,02,22,07,00,22.50
2013,02,22,07,01,30.60
2013,02,22,07,02,19.30
2013,02,22,07,03,17.70
2013,02,22,07,04,24.20
2013,02,22,07,05,27.40
2013,02,22,07,06,30.60
2013,02,22,07,07,22.50
2013,02,22,07,08,22.50
2013,02,22,07,09,16.10
2013,02,22,07,10,16.10
2013,02,22,07,11,22.50
2013,02,22,07,12,14.50
2013,02,22,07,13,11.30
2013,02,22,07,14,20.90
2013,02,22,07,15,11.30
2013,02,22,07,16,25.70
2013,02,22,07,17,16.10
2013,02,22,07,18,22.50
2013,02,22,07,19,11.30
2013,02,22,07,20,6.40
2013,02,22,07,21,9.60
2013,02,22,07,22,17.70
2013,02,22,07,23,6.40
2013,02,22,07,24,19.30
2013,02,22,07,25,16.10
2013,02,22,07,26,9.60
2013,02,22,07,27,24.20
2013,02,22,07,28,22.50
2013,02,22,07,29,20.90
2013,02,22,07,30,9.60
2013,02,22,07,31,3.20
2013,02,22,07,32,17.70
2013,02,22,07,33,24.20
2013,02,22,07,34,14.50
2013,02,22,07,35,27.40
2013,02,22,07,36,27.40
2013,02,22,07,37,22.50
2013,02,22,07,38,9.60
2013,02,22,07,39,27.40
2013,02,22,07,40,19.30
2013,02,22,07,41,19.30
2013,02,22,07,42,25.70
2013,02,22,07,43,11.30
2013,02,22,07,44,12.90
2013,02,22,07,45,19.30
2013,02,22,07,46,19.30
2013,02,22,07,47,11.30
2013,02,22,07,48,17.70
2013,02,22,07,49,9.60
2013,02,22,07,50,9.60
2013,02,22,07,51,8.10
2013,02,22,07,52,24.20
2013,02,22,07,53,20.90
2013,02,22,07,54,22.50
2013,02,22,07,55,11.30
2013,02,22,07,56,11.30
2013,02,22,07,57,6.40
2013,02,22,07,58,16.10
2013,02,22,07,59,16.10
2013,02,22,08,00,25.70
2013,02,22,08,01,29.00
2013,02,22,08,02,30.60
2013,02,22,08,03,16.10
2013,02,22,08,04,17.70
2013,02,22,08,05,14.50
2013,02,22,08,06,14.50
2013,02,22,08,07,19.30
2013,02,22,08,08,19.30
2013,02,22,08,09,14.50
2013,02,22,08,10,9.60
2013,02,22,08,11,12.90
2013,02,22,08,12,19.30
2013,02,22,08,13,14.50
2013,02,22,08,14,11.30
2013,02,22,08,15,20.90
2013,02,22,08,16,20.90
2013,02,22,08,17,20.90
2013,02,22,08,18,17.70
2013,02,22,08,19,20.90
2013,02,22,08,20,19.30
2013,02,22,08,21,11.30
2013,02,22,08,22,30.60
2013,02,22,08,23,22.50
2013,02,22,08,24,24.20
2013,02,22,08,25,17.70
2013,02,22,08,26,19.30
2013,02,22,08,27,11.30
2013,02,22,08,28,20.90
2013,02,22,08,29,25.70
2013,02,22,08,30,16.10
2013,02,22,08,31,17.70
2013,02,22,08,32,16.10
2013,02,22,08,33,29.00
2013,02,22,08,34,20.90
2013,02,22,08,35,20.90
2013,02,22,08,36,29.00
2013,02,22,08,37,20.90
2013,02,22,08,38,17.70
2013,02,22,08,39,22.50
2013,02,22,08,40,4.80
2013,02,22,08,41,19.30
2013,02,22,08,42,14.50
2013,02,22,08,43,16.10
2013,02,22,08,44,24.20
2013,02,22,08,45,19.30
2013,02,22,08,46,17.70
2013,02,22,08,47,14.50
2013,02,22,08,48,17.70
2013,02,22,08,49,11.30
2013,02,22,08,50,25.70
2013,02,22,08,51,19.30
2013,02,22,08,52,16.10
2013,02,22,08,53,16.10
2013,02,22,08,54,17.70
2013,02,22,08,55,20.90
2013,02,22,08,56,16.10
2013,02,22,08,57,14.50
2013,02,22,08,58,22.50
2013,02,22,08,59,19.30
2013,02,22,09,00,8.10
2013,02,22,09,01,22.50
2013,02,22,09,02,14.50
2013,02,22,09,03,3.20
2013,02,22,09,04,9.60
2013,02,22,09,05,20.90
2013,02,22,09,06,6.40
2013,02,22,09,07,4.80
2013,02,22,09,08,6.40
2013,02,22,09,09,22.50
2013,02,22,09,10,17.70
2013,02,22,09,11,20.90
2013,02,22,09,12,22.50
2013,02,22,09,13,14.50
2013,02,22,09,14,19.30
2013,02,22,09,15,24.20
2013,02,22,09,16,17.70
2013,02,22,09,17,22.50
2013,02,22,09,18,11.30
2013,02,22,09,19,11.30
2013,02,22,09,20,8.10
2013,02,22,09,21,8.10
2013,02,22,09,22,16.10
2013,02,22,09,23,27.40
2013,02,22,09,24,22.50
2013,02,22,09,25,11.30
2013,02,22,09,26,16.10
2013,02,22,09,27,20.90
2013,02,22,09,28,24.20
2013,02,22,09,29,19.30
2013,02,22,09,30,9.60
2013,02,22,09,31,9.60
2013,02,22,09,32,8.10
2013,02,22,09,33,4.80
2013,02,22,09,34,17.70
2013,02,22,09,35,16.10
2013,02,22,09,36,16.10
2013,02,22,09,37,14.50
2013,02,22,09,38,17.70
2013,02,22,09,39,16.10
2013,02,22,09,40,6.40
2013,02,22,09,41,8.10
2013,02,22,09,42,6.40
2013,02,22,09,44,1.60
2013,02,22,09,46,14.50
2013,02,22,09,47,9.60
2013,02,22,09,48,9.60
2013,02,22,09,49,6.40
2013,02,22,09,50,4.80
2013,02,22,09,51,6.40
2013,02,22,09,52,6.40
2013,02,22,09,53,6.40
2013,02,22,09,54,6.40
2013,02,22,09,55,8.10
2013,02,22,09,56,9.60
2013,02,22,09,57,11.30
2013,02,22,09,58,6.40
2013,02,22,09,59,8.10
2013,02,22,10,00,16.10
2013,02,22,10,01,11.30
2013,02,22,10,02,11.30
2013,02,22,10,03,24.20
2013,02,22,10,04,11.30
2013,02,22,10,05,20.90
2013,02,22,10,06,22.50
2013,02,22,10,07,22.50
2013,02,22,10,08,17.70
2013,02,22,10,09,19.30
2013,02,22,10,10,24.20
2013,02,22,10,11,27.40
2013,02,22,10,12,20.90
2013,02,22,10,13,17.70
2013,02,22,10,14,9.60
2013,02,22,10,15,17.70
2013,02,22,10,16,17.70
2013,02,22,10,17,9.60
2013,02,22,10,18,9.60
2013,02,22,10,19,19.30
2013,02,22,10,20,17.70
2013,02,22,10,21,6.40
2013,02,22,10,22,3.20
2013,02,22,10,23,9.60
2013,02,22,10,24,17.70
2013,02,22,10,25,12.90
2013,02,22,10,26,6.40
2013,02,22,10,27,6.40
2013,02,22,10,28,17.70
2013,02,22,10,29,6.40
2013,02,22,10,30,9.60
2013,02,22,10,31,16.10
2013,02,22,10,32,11.30
2013,02,22,10,33,14.50
2013,02,22,10,34,9.60
2013,02,22,10,35,11.30
2013,02,22,10,36,8.10
2013,02,22,10,37,20.90
2013,02,22,10,38,11.30
2013,02,22,10,39,22.50
2013,02,22,10,40,16.10
2013,02,22,10,41,16.10
2013,02,22,10,42,20.90
2013,02,22,10,43,29.00
2013,02,22,10,44,22.50
2013,02,22,10,45,20.90
2013,02,22,10,46,22.50
2013,02,22,10,47,17.70
2013,02,22,10,48,17.70
2013,02,22,10,49,6.40
2013,02,22,10,50,14.50
2013,02,22,10,51,20.90
2013,02,22,10,52,9.60
2013,02,22,10,53,17.70
2013,02,22,10,54,20.90
2013,02,22,10,55,11.30
2013,02,22,10,56,11.30
2013,02,22,10,57,11.30
2013,02,22,10,58,19.30
2013,02,22,10,59,11.30
2013,02,22,11,00,14.50
2013,02,22,11,01,9.60
2013,02,22,11,02,19.30
2013,02,22,11,03,11.30
2013,02,22,11,04,16.10
2013,02,22,11,05,11.30
2013,02,22,11,06,11.30
2013,02,22,11,07,22.50
2013,02,22,11,08,20.90
2013,02,22,11,09,6.40
2013,02,22,11,10,8.10
2013,02,22,11,11,11.30
2013,02,22,11,12,14.50
2013,02,22,11,13,19.30
2013,02,22,11,14,16.10
2013,02,22,11,15,12.90
2013,02,22,11,16,8.10
2013,02,22,11,17,19.30
2013,02,22,11,18,16.10
2013,02,22,11,19,19.30
2013,02,22,11,20,12.90
2013,02,22,11,21,16.10
2013,02,22,11,22,16.10
2013,02,22,11,23,25.70
2013,02,22,11,24,19.30
2013,02,22,11,25,27.40
2013,02,22,11,26,19.30
2013,02,22,11,27,30.60
2013,02,22,11,28,25.70
2013,02,22,11,29,16.10
2013,02,22,11,30,22.50
2013,02,22,11,31,20.90
2013,02,22,11,32,11.30
2013,02,22,11,33,16.10
2013,02,22,11,34,11.30
2013,02,22,11,35,19.30
2013,02,22,11,36,16.10
2013,02,22,11,37,12.90
2013,02,22,11,38,8.10
2013,02,22,11,39,22.50
2013,02,22,11,40,20.90
2013,02,22,11,41,17.70
2013,02,22,11,42,6.40
2013,02,22,11,43,16.10
2013,02,22,11,44,22.50
2013,02,22,11,45,17.70
2013,02,22,11,46,16.10
2013,02,22,11,47,16.10
2013,02,22,11,48,14.50
2013,02,22,11,49,12.90
2013,02,22,11,50,19.30
2013,02,22,11,51,12.90
2013,02,22,11,52,4.80
2013,02,22,11,53,9.60
2013,02,22,11,54,24.20
2013,02,22,11,55,19.30
2013,02,22,11,56,11.30
2013,02,22,11,57,11.30
2013,02,22,11,58,11.30
2013,02,22,11,59,9.60
2013,02,22,12,00,11.30
2013,02,22,12,01,16.10
2013,02,22,12,02,12.90
2013,02,22,12,03,9.60
2013,02,22,12,04,16.10
2013,02,22,12,05,11.30
2013,02,22,12,06,19.30
2013,02,22,12,07,14.50
2013,02,22,12,08,8.10
2013,02,22,12,09,14.50
2013,02,22,12,10,11.30
2013,02,22,12,11,9.60
2013,02,22,12,12,14.50
2013,02,22,12,13,6.40
2013,02,22,12,14,4.80
2013,02,22,12,15,11.30
2013,02,22,12,16,22.50
2013,02,22,12,17,12.90
2013,02,22,12,18,8.10
2013,02,22,12,19,9.60
2013,02,22,12,20,20.90
2013,02,22,12,21,14.50
2013,02,22,12,22,14.50
2013,02,22,12,23,14.50
2013,02,22,12,24,11.30
2013,02,22,12,25,17.70
2013,02,22,12,26,11.30
2013,02,22,12,27,14.50
2013,02,22,12,28,9.60
2013,02,22,12,29,8.10
2013,02,22,12,30,8.10
2013,02,22,12,31,6.40
2013,02,22,12,32,9.60
2013,02,22,12,33,9.60
2013,02,22,12,34,11.30
2013,02,22,12,35,11.30
2013,02,22,12,36,14.50
2013,02,22,12,37,19.30
2013,02,22,12,38,19.30
2013,02,22,12,39,16.10
2013,02,22,12,40,9.60
2013,02,22,12,41,16.10
2013,02,22,12,42,9.60
2013,02,22,12,43,11.30
2013,02,22,12,44,8.10
2013,02,22,12,45,6.40
2013,02,22,12,46,4.80
2013,02,22,12,47,4.80
2013,02,22,12,48,3.20
2013,02,22,12,49,8.10
2013,02,22,12,50,14.50
2013,02,22,12,51,8.10
2013,02,22,12,52,9.60
2013,02,22,12,53,1.60
2013,02,22,12,54,3.20
2013,02,22,12,55,4.80
2013,02,22,12,56,4.80
2013,02,22,12,57,9.60
2013,02,22,12,58,3.20
2013,02,22,12,59,1.60
2013,02,22,13,00,8.10
2013,02,22,13,01,12.90
2013,02,22,13,02,9.60
2013,02,22,13,03,14.50
2013,02,22,13,04,12.90
2013,02,22,13,05,11.30
2013,02,22,13,06,14.50
2013,02,22,13,07,20.90
2013,02,22,13,08,22.50
2013,02,22,13,09,22.50
2013,02,22,13,10,25.70
2013,02,22,13,11,19.30
2013,02,22,13,12,24.20
2013,02,22,13,13,20.90
2013,02,22,13,14,24.20
2013,02,22,13,15,22.50
2013,02,22,13,16,20.90
2013,02,22,13,17,19.30
2013,02,22,13,18,17.70
2013,02,22,13,19,24.20
2013,02,22,13,20,25.70
2013,02,22,13,21,25.70
2013,02,22,13,22,20.90
2013,02,22,13,23,17.70
2013,02,22,13,24,16.10
2013,02,22,13,25,17.70
2013,02,22,13,26,27.40
2013,02,22,13,27,35.40
2013,02,22,13,28,25.70
2013,02,22,13,29,27.40
2013,02,22,13,30,20.90
2013,02,22,13,31,29.00
2013,02,22,13,32,20.90
2013,02,22,13,33,17.70
2013,02,22,13,34,20.90
2013,02,22,13,35,25.70
2013,02,22,13,36,32.20
2013,02,22,13,37,27.40
2013,02,22,13,38,29.00
2013,02,22,13,39,37.00
2013,02,22,13,40,29.00
2013,02,22,13,41,24.20
2013,02,22,13,42,29.00
2013,02,22,13,43,17.70
2013,02,22,13,44,30.60
2013,02,22,13,45,29.00
2013,02,22,13,46,41.80
2013,02,22,13,47,24.20
2013,02,22,13,48,24.20
2013,02,22,13,49,22.50
2013,02,22,13,50,32.20
2013,02,22,13,51,19.30
2013,02,22,13,52,29.00
2013,02,22,13,53,29.00
2013,02,22,13,54,20.90
2013,02,22,13,55,33.80
2013,02,22,13,56,25.70
2013,02,22,13,57,27.40
2013,02,22,13,58,27.40
2013,02,22,13,59,24.20
2013,02,22,14,00,27.40
2013,02,22,14,01,14.50
2013,02,22,14,02,24.20
2013,02,22,14,03,16.10
2013,02,22,14,04,22.50
2013,02,22,14,05,17.70
2013,02,22,14,06,16.10
2013,02,22,14,07,19.30
2013,02,22,14,08,20.90
2013,02,22,14,09,19.30
2013,02,22,14,10,17.70
2013,02,22,14,11,9.60
2013,02,22,14,12,11.30
2013,02,22,14,13,19.30
2013,02,22,14,14,19.30
2013,02,22,14,15,25.70
2013,02,22,14,16,17.70
2013,02,22,14,17,24.20
2013,02,22,14,18,24.20
2013,02,22,14,19,14.50
2013,02,22,14,20,32.20
2013,02,22,14,21,19.30
2013,02,22,14,22,22.50
2013,02,22,14,23,32.20
2013,02,22,14,24,30.60
2013,02,22,14,25,33.80
2013,02,22,14,26,33.80
2013,02,22,14,27,22.50
2013,02,22,14,28,20.90
2013,02,22,14,29,22.50
2013,02,22,14,30,22.50
2013,02,22,14,31,25.70
2013,02,22,14,32,27.40
2013,02,22,14,33,22.50
2013,02,22,14,34,19.30
2013,02,22,14,35,19.30
2013,02,22,14,36,25.70
2013,02,22,14,37,20.90
2013,02,22,14,38,19.30
2013,02,22,14,39,17.70
2013,02,22,14,40,32.20
2013,02,22,14,41,25.70
2013,02,22,14,42,17.70
2013,02,22,14,43,16.10
2013,02,22,14,44,17.70
2013,02,22,14,45,11.30
2013,02,22,14,46,8.10
2013,02,22,14,47,12.90
2013,02,22,14,48,22.50
2013,02,22,14,49,25.70
2013,02,22,14,50,33.80
2013,02,22,14,51,29.00
2013,02,22,14,52,29.00
2013,02,22,14,53,20.90
2013,02,22,14,54,17.70
2013,02,22,14,55,24.20
2013,02,22,14,56,20.90
2013,02,22,14,57,19.30
2013,02,22,14,58,35.40
2013,02,22,14,59,35.40
2013,02,22,15,00,33.80
2013,02,22,15,01,24.20
2013,02,22,15,02,22.50
2013,02,22,15,03,17.70
2013,02,22,15,04,30.60
2013,02,22,15,05,33.80
2013,02,22,15,06,27.40
2013,02,22,15,07,29.00
2013,02,22,15,08,19.30
2013,02,22,15,09,29.00
2013,02,22,15,10,20.90
2013,02,22,15,11,19.30
2013,02,22,15,12,24.20
2013,02,22,15,13,35.40
2013,02,22,15,14,32.20
2013,02,22,15,15,30.60
2013,02,22,15,16,24.20
2013,02,22,15,17,33.80
2013,02,22,15,18,30.60
2013,02,22,15,19,30.60
2013,02,22,15,20,24.20
2013,02,22,15,21,27.40
2013,02,22,15,22,19.30
2013,02,22,15,23,24.20
2013,02,22,15,24,25.70
2013,02,22,15,25,25.70
2013,02,22,15,26,17.70
2013,02,22,15,27,19.30
2013,02,22,15,28,29.00
2013,02,22,15,29,30.60
2013,02,22,15,30,19.30
2013,02,22,15,31,29.00
2013,02,22,15,32,24.20
2013,02,22,15,33,32.20
2013,02,22,15,34,29.00
2013,02,22,15,35,32.20
2013,02,22,15,36,32.20
2013,02,22,15,37,25.70
2013,02,22,15,38,27.40
2013,02,22,15,39,33.80
2013,02,22,15,40,49.90
2013,02,22,15,41,43.50
2013,02,22,15,42,37.00
2013,02,22,15,43,43.50
2013,02,22,15,44,48.30
2013,02,22,15,45,53.10
2013,02,22,15,46,48.30
2013,02,22,15,47,33.80
2013,02,22,15,48,37.00
2013,02,22,15,49,38.60
2013,02,22,15,50,43.50
2013,02,22,15,51,32.20
2013,02,22,15,52,27.40
2013,02,22,15,53,25.70
2013,02,22,15,54,27.40
2013,02,22,15,55,25.70
2013,02,22,15,56,24.20
2013,02,22,15,57,20.90
2013,02,22,15,58,14.50
2013,02,22,15,59,33.80
2013,02,22,16,00,29.00
2013,02,22,16,01,20.90
2013,02,22,16,02,12.90
2013,02,22,16,03,20.90
2013,02,22,16,04,29.00
2013,02,22,16,05,20.90
2013,02,22,16,06,14.50
2013,02,22,16,07,17.70
2013,02,22,16,08,24.20
2013,02,22,16,09,25.70
2013,02,22,16,10,22.50
2013,02,22,16,11,29.00
2013,02,22,16,12,30.60
2013,02,22,16,13,25.70
2013,02,22,16,14,25.70
2013,02,22,16,15,20.90
2013,02,22,16,16,22.50
2013,02,22,16,17,17.70
2013,02,22,16,18,29.00
2013,02,22,16,19,33.80
2013,02,22,16,20,40.20
2013,02,22,16,21,20.90
2013,02,22,16,22,30.60
2013,02,22,16,23,27.40
2013,02,22,16,24,27.40
2013,02,22,16,25,32.20
2013,02,22,16,26,20.90
2013,02,22,16,27,17.70
2013,02,22,16,28,14.50
2013,02,22,16,29,25.70
2013,02,22,16,30,29.00
2013,02,22,16,31,37.00
2013,02,22,16,32,41.80
2013,02,22,16,33,33.80
2013,02,22,16,34,29.00
2013,02,22,16,35,16.10
2013,02,22,16,36,22.50
2013,02,22,16,37,20.90
2013,02,22,16,38,20.90
2013,02,22,16,39,27.40
2013,02,22,16,40,20.90
2013,02,22,16,41,25.70
2013,02,22,16,42,24.20
2013,02,22,16,43,27.40
2013,02,22,16,44,27.40
2013,02,22,16,45,17.70
2013,02,22,16,46,20.90
2013,02,22,16,47,17.70
2013,02,22,16,48,33.80
2013,02,22,16,49,32.20
2013,02,22,16,50,25.70
2013,02,22,16,51,25.70
2013,02,22,16,52,35.40
2013,02,22,16,53,24.20
2013,02,22,16,54,29.00
2013,02,22,16,55,32.20
2013,02,22,16,56,35.40
2013,02,22,16,57,19.30
2013,02,22,16,58,22.50
2013,02,22,16,59,19.30
2013,02,22,17,00,22.50
2013,02,22,17,01,22.50
2013,02,22,17,02,22.50
2013,02,22,17,03,16.10
2013,02,22,17,04,16.10
2013,02,22,17,05,19.30
2013,02,22,17,06,17.70
2013,02,22,17,07,20.90
2013,02,22,17,08,14.50
2013,02,22,17,09,16.10
2013,02,22,17,10,11.30
2013,02,22,17,11,16.10
2013,02,22,17,12,12.90
2013,02,22,17,13,9.60
2013,02,22,17,14,14.50
2013,02,22,17,15,16.10
2013,02,22,17,16,17.70
2013,02,22,17,17,16.10
2013,02,22,17,18,6.40
2013,02,22,17,19,8.10
2013,02,22,17,20,9.60
2013,02,22,17,21,9.60
2013,02,22,17,22,12.90
2013,02,22,17,23,8.10
2013,02,22,17,24,4.80
2013,02,22,17,25,22.50
2013,02,22,17,26,17.70
2013,02,22,17,27,19.30
2013,02,22,17,28,17.70
2013,02,22,17,29,8.10
2013,02,22,17,30,9.60
2013,02,22,17,31,9.60
2013,02,22,17,32,9.60
2013,02,22,17,33,19.30
2013,02,22,17,34,8.10
2013,02,22,17,35,11.30
2013,02,22,17,36,14.50
2013,02,22,17,37,8.10
2013,02,22,17,38,14.50
2013,02,22,17,39,4.80
2013,02,22,17,40,4.80
2013,02,22,17,41,8.10
2013,02,22,17,42,4.80
2013,02,22,17,43,19.30
2013,02,22,17,44,19.30
2013,02,22,17,45,14.50
2013,02,22,17,46,8.10
2013,02,22,17,47,6.40
2013,02,22,17,48,9.60
2013,02,22,17,49,17.70
2013,02,22,17,50,11.30
2013,02,22,17,51,14.50
2013,02,22,17,52,12.90
2013,02,22,17,53,11.30
2013,02,22,17,54,17.70
2013,02,22,17,55,16.10
2013,02,22,17,56,11.30
2013,02,22,17,57,8.10
2013,02,22,17,58,11.30
2013,02,22,17,59,8.10
2013,02,22,18,00,16.10
2013,02,22,18,01,11.30
2013,02,22,18,02,11.30
2013,02,22,18,03,4.80
2013,02,22,18,04,6.40
2013,02,22,18,05,8.10
2013,02,22,18,06,17.70
2013,02,22,18,07,12.90
2013,02,22,18,08,19.30
2013,02,22,18,09,14.50
2013,02,22,18,10,11.30
2013,02,22,18,11,14.50
2013,02,22,18,12,8.10
2013,02,22,18,13,14.50